Location: Dos Palmas
(32.4468°N, 116.8732°W)
Time: 02:19:42
(UTC+00:00)

Cosmos 1802 Rocket - Pass Details

Date: 20 June 2021
Orbit: 955 x 1010 km, 82.9° (Epoch: 27 July)

Event Time Altitude Azimuth Distance (km) Brightness Sun altitude
Rises 05:07:42 0° 356° (N) 3,690 7.9 -22.1°
Reaches altitude 10° 05:10:13 10° 359° (N) 2,747 7.0 -22.5°
Maximum altitude 05:16:31 73° 83° (E) 1,038 4.0 -23.3°
Enters shadow 05:18:21 48° 153° (SSE) 1,277 4.1 -23.5°
